This demonstration page uses our WeatherBlox Daily Observations layout. Learn more.

Left ArrowRight Arrow

Hourly Observations for November 26, 2022

Temp ( °F °C ) Dew Point ( °F °C ) Humidity (%) Winds ( mph kmh ) Pressure ( in mb ) Visibility ( mi km ) Precip ( " mm )
12:56 am 00:56 Clear 36 2.2 30 -1.1 79 79 S 8 13 30.18 1022 10 16 0.00 0.00
1:56 am 01:56 Clear 32 0 28 -2.2 85 85 S 8 13 30.16 1021 10 16 0.00 0.00
2:56 am 02:56 Clear 34 1.1 30 -1.1 85 85 S 6 9 30.12 1020 10 16 0.00 0.00
3:56 am 03:56 Clear 32 0 29 -1.7 88 88 SSE 9 15 30.09 1019 10 16 0.00 0.00
4:56 am 04:56 Clear 33 0.6 30 -1.1 88 88 SE 5 7 30.04 1017 10 16 0.00 0.00
5:56 am 05:56 Clear 34 1.1 31 -0.6 88 88 S 9 15 30.04 1017 10 16 0.00 0.00
6:56 am 06:56 Clear 37 2.8 33 0.6 85 85 SSE 9 15 30.04 1017 10 16 0.00 0.00
7:56 am 07:56 Sunny 37 2.8 32 0 82 82 SSE 6 9 30.00 1016 10 16 0.00 0.00
8:56 am 08:56 Sunny 40 4.4 35 1.7 83 83 Calm 29.98 1015 10 16 0.00 0.00
9:56 am 09:56 Sunny 43 6.1 36 2.2 76 76 NNW 5 7 29.96 1015 10 16 0.00 0.00
10:56 am 10:56 Partly Cloudy 45 7.2 37 2.8 74 74 Calm 29.96 1015 10 16 0.00 0.00
11:31 am 11:31 Mostly Cloudy 46 8 37 3 71 71 SSE 7 11 29.96 1015 10 16 0.00 0.00
11:56 am 11:56 Cloudy 46 7.8 39 3.9 76 76 SW 3 6 29.91 1013 10 16 0.00 0.00
12:56 pm 12:56 Cloudy with Light Rain 47 8.3 41 5 80 80 NW 8 13 29.83 1010 10 16 0.01 0.13
1:04 pm 13:04 Cloudy with Light Rain 46 8 41 5 81 81 NNW 8 13 29.83 1010 10 16 0.01 0.13
1:53 pm 13:53 Cloudy with Light Rain 46 8 45 7 93 93 N 8 13 29.80 1009 10 16 0.01 0.13
1:56 pm 13:56 Cloudy with Light Rain 47 8.3 44 6.7 90 90 NNE 8 13 29.79 1009 10 16 0.01 0.13
2:47 pm 14:47 Cloudy 48 9 45 7 87 87 NNE 12 19 29.76 1008 10 16 0.01 0.13
2:56 pm 14:56 Cloudy 48 8.9 44 6.7 86 86 NNE 12 19 29.74 1007 10 16 0.01 0.13
3:56 pm 15:56 Cloudy with Light Rain 47 8.3 42 5.6 83 83 NE 7 11 29.73 1007 10 16 0.01 0.13
4:49 pm 16:49 Cloudy with Light Rain 45 7 45 7 100 100 N 6 9 29.74 1007 10 16 0.02 0.51
4:56 pm 16:56 Cloudy with Light Rain 45 7.2 44 6.7 97 97 Calm 29.73 1007 10 16 0.02 0.51
5:51 pm 17:51 Cloudy with Light Rain 45 7 45 7 100 100 N 8 13 29.73 1007 6 10 0.10 2.54
5:56 pm 17:56 Cloudy with Rain 44 6.7 44 6.7 100 100 N 10 17 29.70 1006 6 10 0.11 2.79
6:56 pm 18:56 Cloudy 44 6.7 44 6.7 100 100 N 9 15 29.69 1005 10 16 0.06 1.52
7:21 pm 19:21 Cloudy with Light Rain 45 7 45 7 100 100 NNE 12 19 29.69 1005 4 6 0.01 0.13
7:41 pm 19:41 Cloudy with Light Rain 45 7 45 7 100 100 NE 9 15 29.68 1005 5 8 0.01 0.25
7:56 pm 19:56 Cloudy with Light Rain 44 6.7 44 6.7 100 100 NNE 9 15 29.66 1005 10 16 0.01 0.25
8:30 pm 20:30 Cloudy 45 7 45 7 100 100 N 14 22 29.67 1005 9 14 0.01 0.13
8:48 pm 20:48 Cloudy 45 7 45 7 100 100 N 13 20 29.67 1005 9 14 0.01 0.13
8:56 pm 20:56 Cloudy with Light Rain 44 6.7 44 6.7 100 100 N 13 20 29.64 1004 8 13 0.01 0.25
9:03 pm 21:03 Cloudy with Light Rain 43 6 43 6 100 100 N 14 22 29.67 1005 6 10 0.01 0.13
9:30 pm 21:30 Cloudy with Light Rain 43 6 43 6 100 100 N 14 22 29.65 1004 7 11 0.03 0.76
9:56 pm 21:56 Cloudy with Light Rain 43 6.1 43 6.1 100 100 N 12 19 29.65 1004 9 14 0.06 1.52
10:56 pm 22:56 Cloudy with Light Rain 43 6.1 43 6.1 100 100 N 9 15 29.62 1003 10 16 0.03 0.76
11:56 pm 23:56 Cloudy with Light Rain 42 5.6 42 5.6 100 100 NNW 14 22 29.64 1004 10 16 0.03 0.76

Powered by AerisWeather